sat.trackr.live / text

‹ back to catalog

GPS BIIRM-2 (PRN 31)

NORAD 29486 · 2006-042A

PAYLOAD ACTIVE UNKNOWN

§ Identity

Operator
Country
US
Launch date
2006-09-25
Launch site
AFETR
Launch vehicle
Mass (kg)
RCS (m²)
11.79

Purposes: nav

External: N2YO · Heavens-Above · Gunter

§ Orbital elements

Epoch: 2026-09-19T11:23:54.732192Z

Period
717.97 min
Inclination
54.7158°
Eccentricity
0.0108964
Mean motion
2.00565127 rev/d
Perigee alt
19,892.7 km
Apogee alt
20,471.5 km
Semi-major
26,560.2 km
B*
0.0000e+0
RAAN
147.5934°
Arg perigee
57.3279°
Mean anomaly
124.8096°
Rev number
14,628

§ Raw data

GPS BIIRM-2 (PRN 31)1 29486U 06042A   26262.47493903 -.00000020  00000+0  00000+0 0  99992 29486  54.7158 147.5934 0108964  57.3279 124.8096  2.00565127146284

JSON: /api/v1/satellites/29486 · /tle

For live sub-satellite position, see the globe view (requires WebGL).

§ Visibility from observer

Set your observer location to see the next 7 days of passes ≥ 10°. The values pass through the URL so the page stays shareable.

No JS? Fill the form by hand. The geolocation button needs JavaScript.